Location: Unspecified
(0.0000°N, 0.0000°E)
Time: 03:39:01
(UTC+01:00)

Ariane H10 - Pass Details

Date: 27 November 2017
Orbit: 390 x 35079 km, 4.3° (Epoch: 13 December)

Event Time Altitude Azimuth Distance (km) Brightness Sun altitude
Rises 16:44:32 0° 263° (W) 4,362 8.5 28.5°
Reaches altitude 10° 16:46:11 10° 261° (W) 3,908 8.6 28.1°
Maximum altitude 00:41:32 77° 70° (ENE) 25,248 10.6 -68.8°
Drops below altitude 10° 02:30:43 10° 85° (E) 8,283 9.0 -57.1°
Sets 02:34:13 0° 86° (E) 8,240 9.1 -56.5°
